This is the latest recevied weather packets stored in our database for station/object W1RCY. If no packets are shown the sender has not sent any weather packets the latest 10 day(s).
| Time | Temp. | Humidity | Pressure | Rain* | Wind** | Luminosity | Snow |
|---|---|---|---|---|---|---|---|
| 1777478508 | 11.67° C | 77% | 1014.8 hPa | 0 mm | - | 447 W/m² | - |
| 1777478205 | 11.11° C | 80% | 1014.9 hPa | 0 mm | - | 441 W/m² | - |
| 1777477901 | 11.11° C | 78% | 1014.9 hPa | 0 mm | - | 443 W/m² | - |
| 1777477596 | 11.11° C | 79% | 1015 hPa | 0 mm | - | 416 W/m² | - |
| 1777477293 | 11.11° C | 78% | 1015 hPa | 0 mm | - | 408 W/m² | - |
| 1777476990 | 10.56° C | 80% | 1015.1 hPa | 0 mm | - | 403 W/m² | - |
| 1777476688 | 10° C | 80% | 1015.2 hPa | 0 mm | - | 381 W/m² | - |
| 1777476384 | 10° C | 82% | 1015.3 hPa | 0 mm | - | 390 W/m² | - |
| 1777476081 | 9.44° C | 83% | 1015.5 hPa | 0 mm | - | 383 W/m² | - |
| 1777475775 | 9.44° C | 83% | 1015.8 hPa | 0 mm | - | 230 W/m² | - |
| 1777475472 | 9.44° C | 83% | 1016.1 hPa | 0 mm | - | 224 W/m² | - |
| 1777475168 | 8.89° C | 84% | 1016.3 hPa | 0 mm | - | 277 W/m² | - |
| 1777474864 | 8.89° C | 85% | 1016 hPa | 0 mm | - | 279 W/m² | - |
| 1777474560 | 9.44° C | 84% | 1016.2 hPa | 0 mm | - | 211 W/m² | - |
| 1777474257 | 9.44° C | 84% | 1016.1 hPa | 0 mm | - | 206 W/m² | - |
| 1777473954 | 10° C | 82% | 1016.2 hPa | 0 mm | - | 173 W/m² | - |
| 1777473652 | 9.44° C | 83% | 1016.3 hPa | 0 mm | - | 166 W/m² | - |
| 1777473348 | 9.44° C | 84% | 1016.4 hPa | 0 mm | - | 227 W/m² | - |
| 1777473044 | 9.44° C | 82% | 1016.3 hPa | 0 mm | - | 232 W/m² | - |
| 1777472740 | 9.44° C | 83% | 1016.9 hPa | 0 mm | - | 222 W/m² | - |
| 1777472437 | 9.44° C | 83% | 1016.9 hPa | 0 mm | - | 205 W/m² | - |
| 1777472129 | 9.44° C | 82% | 1016.7 hPa | 0 mm | - | 237 W/m² | - |
| 1777471829 | 10° C | 81% | 1016.8 hPa | 0 mm | - | 189 W/m² | - |
| 1777471525 | 10° C | 81% | 1016.9 hPa | 0 mm | - | 208 W/m² | - |
| 1777471222 | 10° C | 82% | 1016.7 hPa | 0 mm | - | 250 W/m² | - |
* Rain latest hour (hover to see other rain measurements)
** Current wind speed in m/s (hover to see current wind gust speed)